TimeCST,TemperatureF,Dew PointF,Humidity,Sea Level PressureIn,VisibilityMPH,Wind Direction,Wind SpeedMPH,Gust SpeedMPH,PrecipitationIn,Events,Conditions,WindDirDegrees,DateUTC
12:14 AM,33.4,30.6,89,30.14,10.0,Calm,Calm,-,N/A,,Clear,0,2012-11-20 06:14:00
12:34 AM,33.8,30.7,89,30.14,10.0,Calm,Calm,-,N/A,,Clear,0,2012-11-20 06:34:00
12:54 AM,32.9,30.2,90,30.14,10.0,Calm,Calm,-,N/A,,Clear,0,2012-11-20 06:54:00
1:14 AM,32.0,29.5,90,30.14,10.0,Calm,Calm,-,N/A,,Clear,0,2012-11-20 07:14:00
1:34 AM,31.5,29.1,91,30.14,10.0,Calm,Calm,-,N/A,,Clear,0,2012-11-20 07:34:00
1:54 AM,30.9,28.8,92,30.15,7.0,Calm,Calm,-,N/A,,Clear,0,2012-11-20 07:54:00
2:14 AM,31.3,29.3,92,30.15,7.0,Calm,Calm,-,N/A,,Clear,0,2012-11-20 08:14:00
2:34 AM,32.0,29.7,91,30.15,10.0,Calm,Calm,-,N/A,,Clear,0,2012-11-20 08:34:00
2:55 AM,30.2,28.2,92,30.15,7.0,Calm,Calm,-,N/A,,Clear,0,2012-11-20 08:55:00
3:14 AM,30.0,28.0,92,30.16,7.0,Calm,Calm,-,N/A,,Clear,0,2012-11-20 09:14:00
3:34 AM,30.2,28.4,93,30.16,7.0,Calm,Calm,-,N/A,,Clear,0,2012-11-20 09:34:00
3:54 AM,29.5,27.7,93,30.16,7.0,Calm,Calm,-,N/A,,Clear,0,2012-11-20 09:54:00
4:14 AM,29.1,27.3,93,30.16,7.0,Calm,Calm,-,N/A,,Clear,0,2012-11-20 10:14:00
4:34 AM,29.3,27.5,93,30.16,7.0,Calm,Calm,-,N/A,,Clear,0,2012-11-20 10:34:00
4:54 AM,29.7,28.0,94,30.15,7.0,Calm,Calm,-,N/A,,Clear,0,2012-11-20 10:54:00
5:14 AM,29.5,27.9,94,30.16,5.0,Calm,Calm,-,N/A,,Clear,0,2012-11-20 11:14:00
5:34 AM,28.4,27.0,94,30.16,5.0,Calm,Calm,-,N/A,,Clear,0,2012-11-20 11:34:00
5:54 AM,27.3,25.5,93,30.16,5.0,Calm,Calm,-,N/A,,Clear,0,2012-11-20 11:54:00
6:14 AM,26.1,24.8,95,30.16,5.0,Calm,Calm,-,N/A,,Clear,0,2012-11-20 12:14:00
6:34 AM,26.6,25.3,95,30.16,5.0,Calm,Calm,-,N/A,,Clear,0,2012-11-20 12:34:00
6:54 AM,26.1,24.6,94,30.17,5.0,Calm,Calm,-,N/A,,Clear,0,2012-11-20 12:54:00
7:14 AM,26.2,24.8,94,30.17,5.0,Calm,Calm,-,N/A,,Clear,0,2012-11-20 13:14:00
7:34 AM,26.2,24.6,94,30.18,4.0,Calm,Calm,-,N/A,,Clear,0,2012-11-20 13:34:00
7:54 AM,25.7,23.9,93,30.18,4.0,Calm,Calm,-,N/A,,Clear,0,2012-11-20 13:54:00
8:14 AM,27.7,25.9,93,30.19,5.0,Calm,Calm,-,N/A,,Clear,0,2012-11-20 14:14:00
8:34 AM,29.8,27.7,92,30.19,5.0,Calm,Calm,-,N/A,,Clear,0,2012-11-20 14:34:00
8:54 AM,32.4,30.0,91,30.18,5.0,Calm,Calm,-,N/A,,Clear,0,2012-11-20 14:54:00
9:14 AM,34.0,31.1,89,30.18,7.0,Calm,Calm,-,N/A,,Clear,0,2012-11-20 15:14:00
9:34 AM,37.8,32.4,81,30.16,10.0,Calm,Calm,-,N/A,,Clear,0,2012-11-20 15:34:00
9:54 AM,41.2,34.5,77,30.16,10.0,Calm,Calm,-,N/A,,Clear,0,2012-11-20 15:54:00
10:14 AM,43.2,34.5,72,30.16,10.0,Calm,Calm,-,N/A,,Clear,0,2012-11-20 16:14:00
10:34 AM,45.3,34.9,67,30.16,10.0,Calm,Calm,-,N/A,,Clear,0,2012-11-20 16:34:00
10:54 AM,46.9,34.0,61,30.16,10.0,Calm,Calm,-,N/A,,Clear,0,2012-11-20 16:54:00
11:15 AM,48.2,35.2,61,30.16,10.0,Calm,Calm,-,N/A,,Clear,0,2012-11-20 17:15:00
11:34 AM,50.2,31.5,49,30.14,10.0,Calm,Calm,-,N/A,,Clear,0,2012-11-20 17:34:00
11:54 AM,52.2,30.9,44,30.15,10.0,Calm,Calm,-,N/A,,Clear,0,2012-11-20 17:54:00
12:14 PM,54.0,29.3,39,30.14,10.0,Calm,Calm,-,N/A,,Clear,0,2012-11-20 18:14:00
12:35 PM,55.6,25.7,32,30.13,10.0,Calm,Calm,-,N/A,,Clear,0,2012-11-20 18:35:00
1:14 PM,57.9,23.0,26,30.11,10.0,Calm,Calm,-,N/A,,Clear,0,2012-11-20 19:14:00
1:34 PM,57.7,24.1,27,30.10,10.0,Calm,Calm,-,N/A,,Clear,0,2012-11-20 19:34:00
1:54 PM,57.0,24.3,28,30.09,10.0,Calm,Calm,-,N/A,,Clear,0,2012-11-20 19:54:00
2:14 PM,59.5,25.0,27,30.08,10.0,Calm,Calm,-,N/A,,Clear,0,2012-11-20 20:14:00
2:34 PM,59.2,23.0,25,30.08,10.0,Calm,Calm,-,N/A,,Clear,0,2012-11-20 20:34:00
2:54 PM,59.9,22.5,24,30.07,10.0,Calm,Calm,-,N/A,,Clear,0,2012-11-20 20:54:00
3:14 PM,60.1,21.2,22,30.07,10.0,Calm,Calm,-,N/A,,Clear,0,2012-11-20 21:14:00
3:34 PM,59.4,23.7,25,30.05,10.0,Calm,Calm,-,N/A,,Clear,0,2012-11-20 21:34:00
3:54 PM,58.6,24.8,27,30.05,10.0,Calm,Calm,-,N/A,,Clear,0,2012-11-20 21:54:00
4:14 PM,57.2,24.8,29,30.05,10.0,Calm,Calm,-,N/A,,Clear,0,2012-11-20 22:14:00
4:34 PM,55.8,25.3,31,30.05,10.0,Calm,Calm,-,N/A,,Clear,0,2012-11-20 22:34:00
4:54 PM,53.8,25.5,34,30.04,10.0,Calm,Calm,-,N/A,,Clear,0,2012-11-20 22:54:00
5:14 PM,51.8,26.1,37,30.04,10.0,South,5.8,-,N/A,,Clear,180,2012-11-20 23:14:00
5:34 PM,50.9,26.1,38,30.04,10.0,South,11.5,-,N/A,,Clear,180,2012-11-20 23:34:00
5:54 PM,50.5,26.1,39,30.03,10.0,South,12.7,18.4,N/A,,Clear,180,2012-11-20 23:54:00
6:14 PM,51.1,26.2,38,30.03,10.0,South,13.8,21.9,N/A,,Clear,180,2012-11-21 00:14:00
6:34 PM,50.5,26.6,39,30.03,10.0,South,15.0,19.6,N/A,,Clear,180,2012-11-21 00:34:00
6:55 PM,50.0,27.1,41,30.02,10.0,South,15.0,-,N/A,,Clear,180,2012-11-21 00:55:00
7:14 PM,49.1,27.9,44,30.02,10.0,South,12.7,19.6,N/A,,Clear,180,2012-11-21 01:14:00
7:34 PM,49.1,28.9,46,30.02,10.0,South,13.8,-,N/A,,Clear,190,2012-11-21 01:34:00
7:54 PM,47.3,29.3,50,30.03,10.0,South,17.3,21.9,N/A,,Clear,190,2012-11-21 01:54:00
8:14 PM,46.4,29.3,51,30.01,10.0,South,17.3,25.3,N/A,,Clear,190,2012-11-21 02:14:00
8:34 PM,46.4,29.3,51,30.01,10.0,South,15.0,20.7,N/A,,Clear,190,2012-11-21 02:34:00
8:54 PM,46.0,29.3,52,30.01,10.0,South,13.8,-,N/A,,Clear,190,2012-11-21 02:54:00
9:14 PM,45.5,29.8,54,30.00,10.0,South,15.0,-,N/A,,Clear,190,2012-11-21 03:14:00
9:34 PM,45.9,30.2,54,30.00,10.0,SSW,16.1,21.9,N/A,,Clear,200,2012-11-21 03:34:00
9:55 PM,45.9,30.2,54,29.99,10.0,SSW,16.1,24.2,N/A,,Clear,200,2012-11-21 03:55:00
10:14 PM,45.7,30.6,56,29.98,10.0,South,16.1,23.0,N/A,,Clear,190,2012-11-21 04:14:00
10:34 PM,46.0,30.7,55,29.97,10.0,South,16.1,21.9,N/A,,Clear,190,2012-11-21 04:34:00
10:55 PM,45.5,30.9,57,29.97,10.0,SSW,16.1,24.2,N/A,,Clear,200,2012-11-21 04:55:00
11:14 PM,46.0,31.6,57,29.97,10.0,SSW,17.3,23.0,N/A,,Clear,200,2012-11-21 05:14:00
11:34 PM,47.5,32.0,55,29.96,10.0,SSW,15.0,21.9,N/A,,Clear,200,2012-11-21 05:34:00
11:55 PM,48.2,32.0,54,29.96,10.0,SSW,16.1,25.3,N/A,,Clear,200,2012-11-21 05:55:00